COSMOS 2251 DEB, 33816

Orbit data source: Space-Track

COSMOS 2251 DEB, 33816 is space debris in LEO originally from a launch on Wed, 16 Jun 1993 UTC launched from the Plesetsk Missile And Space Complex (PKMTR). The debris from Iridium 33, an American commercial communications satellite, has been tracked extensively since its accidental collision with the defunct Russian satellite Cosmos 2251 in 2009. This event, occurring at high speed in low Earth orbit (LEO), generated thousands of pieces of space debris, significantly increasing the risk of further collisions. The Iridium 33 debris cloud has impacted space traffic management and orbital debris mitigation strategies, making it a subject of ongoing study in space situational awareness.

Loading next visibility...
Identifier
33816, 1993-036BH
Orbit
LEO
Country
Flag of CISCIS
Related business
Manufacturer
Unknown
Mission
Spacecraft
Bus & Motor
Unknown
Mass
Unknown
Launch date (UTC)
1993-06-16 (33 years ago)
Launch vehicle
Unknown
Launch site
Plesetsk Missile And Space Complex (PKMTR)
Object type
Payload
Rocket body
Debris
Shape & HBR
Unknown shape, 0.2 m
Radar Cross Section
Medium (>0.1 m² and <1 m²)

Expand to show TLE details & history
Last TLE update: 7 hours ago

TLE from 7 hours ago
0 COSMOS 2251 DEB
1 33816U 93036BH  26163.27552557  .00000470  00000-0  35078-3 0  9995
2 33816  73.8932 157.6157 0264132 136.5638 225.6633 13.82061578871810
Epoch: 2026-06-12T06:36Z
TLE epoch observation values (Epoch: 2026-06-12T06:36:45.409Z)
Latitude
0.00003°
Longitude
157.8192°
Altitude
1,097.09 km
Speed
7.235 km/s
True Right ascension
10h 30m 27s
True Declination
0° 00' 00"
Sunlit
Object was in daylight at epoch
Visualization orbit readout
Latitude
Unknown
Longitude
Unknown
Altitude
Unknown
Speed
Unknown
Apparent Right ascension
Unknown
Apparent Declination
Unknown
Sunlit
N/A
Visualization observer readout
Local Sidereal Time
23:45:36
Azimuth
Unknown
Elevation
Unknown
Doppler factor
Unknown
Orbital elements
Apogee altitude
1,147.95 km
Perigee altitude
760.605 km
Semi-major axis
7,332.414 km
Eccentricity
0.02641
Inclination
73.8932°
RAAN
157.6157°
Arg. of periapsis
136.5638°
True anomaly
223.54779°
Mean anomaly
225.6633°
Eccentric anomaly
224.60067°
Mean motion
3.45679 °/min
Orbital period
104.14 mins
BSTAR
0.00035078
Loading maneuver chart data...
Computing Atmospheric mass density...

Documentation

Showing up to 5 results
|